TimeEDT,TemperatureF,Dew PointF,Humidity,Sea Level PressureIn,VisibilityMPH,Wind Direction,Wind SpeedMPH,Gust SpeedMPH,PrecipitationIn,Events,Conditions,WindDirDegrees,DateUTC
12:54 AM,46.0,34.0,63,30.17,10.0,South,4.6,-,N/A,,Clear,190,2011-11-03 04:54:00
1:54 AM,46.0,34.0,63,30.15,10.0,SSW,4.6,-,N/A,,Clear,200,2011-11-03 05:54:00
2:54 AM,45.0,34.0,65,30.15,10.0,SSW,5.8,-,N/A,,Clear,200,2011-11-03 06:54:00
3:54 AM,45.0,33.1,63,30.13,10.0,SSW,4.6,-,N/A,,Clear,200,2011-11-03 07:54:00
4:54 AM,44.6,33.8,66,30.10,10.0,South,5.8,-,N/A,,Clear,190,2011-11-03 08:54:00
5:54 AM,45.0,32.0,60,30.12,10.0,SSW,4.6,-,N/A,,Clear,200,2011-11-03 09:54:00
6:54 AM,46.0,30.0,54,30.12,10.0,SSW,3.5,-,N/A,,Clear,210,2011-11-03 10:54:00
7:54 AM,44.6,30.2,57,30.10,10.0,SSW,4.6,-,N/A,,Clear,210,2011-11-03 11:54:00
8:54 AM,46.0,32.0,58,30.12,10.0,South,4.6,-,N/A,,Clear,190,2011-11-03 12:54:00
9:54 AM,51.1,32.0,48,30.11,10.0,SW,5.8,-,N/A,,Clear,220,2011-11-03 13:54:00
10:54 AM,54.0,34.0,47,30.08,10.0,SSW,8.1,-,N/A,,Clear,210,2011-11-03 14:54:00
11:54 AM,55.0,34.0,45,30.07,10.0,WSW,10.4,-,N/A,,Clear,250,2011-11-03 15:54:00
12:54 PM,55.9,34.0,44,30.04,10.0,WSW,4.6,-,N/A,,Clear,250,2011-11-03 16:54:00
1:54 PM,57.9,32.0,37,30.01,10.0,SW,4.6,-,N/A,,Clear,220,2011-11-03 17:54:00
2:54 PM,57.9,32.0,37,29.98,10.0,WSW,4.6,-,N/A,,Clear,240,2011-11-03 18:54:00
3:54 PM,57.9,30.9,36,29.96,10.0,Calm,Calm,-,N/A,,Clear,0,2011-11-03 19:54:00
4:54 PM,57.0,32.0,39,29.94,10.0,Calm,Calm,-,N/A,,Clear,0,2011-11-03 20:54:00
5:54 PM,55.0,30.9,40,29.94,10.0,Calm,Calm,-,N/A,,Clear,0,2011-11-03 21:54:00
6:54 PM,54.0,30.9,41,29.96,10.0,Calm,Calm,-,N/A,,Clear,0,2011-11-03 22:54:00
7:54 PM,50.0,33.1,52,29.95,10.0,NE,4.6,-,N/A,,Clear,50,2011-11-03 23:54:00
8:54 PM,51.1,34.0,52,29.97,10.0,ENE,3.5,-,N/A,,Clear,70,2011-11-04 00:54:00
9:54 PM,48.2,35.6,62,29.93,10.0,NE,4.6,-,N/A,,Clear,50,2011-11-04 01:54:00
10:54 PM,50.0,34.0,54,29.94,10.0,NE,6.9,-,N/A,,Clear,50,2011-11-04 02:54:00
11:54 PM,48.0,35.1,61,29.92,10.0,NE,9.2,-,N/A,,Clear,40,2011-11-04 03:54:00